Change the Weather History Date:

Tuesday, January 22, 2013

  Actual Average Record
Temperature  
Mean Temperature 28 °F -  
Max Temperature 33 °F 41 °F 53 °F (1997)
Min Temperature 24 °F 31 °F 24 °F (2013)
Degree Days  
Heating Degree Days 36    
Moisture  
Dew Point 28 °F    
Average Humidity 93    
Maximum Humidity 100    
Minimum Humidity 77    
Precipitation  
Precipitation 0.00 in 0.07 in - ()
Sea Level Pressure  
Sea Level Pressure 29.64 in    
Wind  
Wind Speed 4 mph ()    
Max Wind Speed 9 mph    
Max Gust Speed -    
Visibility 1.7 miles    
Events      
Averages and records for this station are not official NWS values.
T = Trace of Precipitation, MM = Missing Value Source: Averaged Metar Reports

Daily Weather History Graph

Daily Weather History Graph

Search for Another Location

Airport or City:

Trip Planner

Search our weather history database for the weather conditions in past years. The results will help you decide how hot, cold, wet, or windy it might be!

Date:

Astronomy

Jan. 22, 2013 Rise Set
Actual Time 8:26 AM CET 5:11 PM CET
Civil Twilight 7:49 AM CET 5:48 PM CET
Nautical Twilight 7:08 AM CET 6:28 PM CET
Astronomical Twilight 6:29 AM CET 7:07 PM CET
Moon 1:17 PM CET (1/22) 4:38 AM CET (1/22)
Length of Visible Light 9h 58m
Length of Day
8h 44m
Waxing Gibbous, 80% of the Moon is Illuminated
Jan 22
Waxing Gibbous
Jan 27
Full
Feb 3
Last Quarter
Feb 10
New
Feb 17
First Quarter

Hourly Weather History & Observations

Time (CET) Temp. Windchill Dew Point Humidity Pressure Visibility Wind Dir Wind Speed Gust Speed Precip Events Conditions
12:25 AM 30.2 °F 24.3 °F 28.4 °F 93% 29.53 in - NE 5.8 mph - N/A   Overcast
12:55 AM 30.2 °F 25.4 °F 28.4 °F 93% 29.53 in - NE 4.6 mph - N/A   Overcast
1:00 AM 29 °F - 28 °F 97% 29.58 in 2 mi NNE 4.5 mph - -   Mist
1:25 AM 30.2 °F 25.4 °F 28.4 °F 93% 29.56 in - NE 4.6 mph - N/A   Overcast
1:55 AM 28.4 °F 22.2 °F 28.4 °F 100% 29.56 in 1.7 mi NE 5.8 mph - N/A   Overcast
2:25 AM 28.4 °F 21.2 °F 28.4 °F 100% 29.56 in 1.7 mi NE 6.9 mph - N/A   Overcast
2:55 AM 28.4 °F 23.3 °F 28.4 °F 100% 29.56 in 1.6 mi ENE 4.6 mph - N/A   Overcast
3:25 AM 28.4 °F 23.3 °F 28.4 °F 100% 29.56 in 1.5 mi NE 4.6 mph - N/A   Overcast
3:55 AM 28.4 °F 22.2 °F 28.4 °F 100% 29.56 in 1.4 mi NE 5.8 mph - N/A   Overcast
4:00 AM 28 °F - 28 °F 99% 29.61 in 1 mi NNE 4.5 mph - -   Mist
4:25 AM 28.4 °F 24.6 °F 28.4 °F 100% 29.56 in 1.4 mi NNE 3.5 mph - N/A   Overcast
4:55 AM 28.4 °F 23.3 °F 28.4 °F 100% 29.56 in 1.4 mi NE 4.6 mph - N/A   Overcast
5:25 AM 28.4 °F 23.3 °F 28.4 °F 100% 29.59 in 1.4 mi NE 4.6 mph - N/A   Overcast
5:55 AM 28.4 °F - 28.4 °F 100% 29.59 in 1.5 mi NE 2.3 mph - N/A   Overcast
6:25 AM 28.4 °F - 28.4 °F 100% 29.59 in 1.4 mi East 2.3 mph - N/A   Overcast
6:55 AM 28.4 °F - 28.4 °F 100% 29.59 in 1.6 mi Variable 2.3 mph - N/A   Overcast
7:00 AM 28 °F - 27 °F 96% 29.63 in 1 mi NE 4.5 mph - -   Mist
7:25 AM 28.4 °F 23.3 °F 28.4 °F 100% 29.59 in 1.4 mi NE 4.6 mph - N/A   Overcast
7:55 AM 28.4 °F 23.3 °F 28.4 °F 100% 29.62 in 1.6 mi North 4.6 mph - N/A   Overcast
8:25 AM 28.4 °F - 28.4 °F 100% 29.62 in 1.4 mi Variable 2.3 mph - N/A   Overcast
8:55 AM 28.4 °F - 26.6 °F 93% 29.62 in 1.5 mi North 2.3 mph - N/A   Overcast
9:25 AM 28.4 °F - 26.6 °F 93% 29.65 in 1.5 mi NE 2.3 mph - N/A   Overcast
9:55 AM 28.4 °F - 28.4 °F 100% 29.65 in 1.4 mi NE 2.3 mph - N/A   Overcast
10:00 AM 29 °F - 28 °F 92% 29.69 in 1 mi NNW 2.2 mph - -   Mist
10:25 AM 28.4 °F - 26.6 °F 93% 29.65 in 1.5 mi NNW 2.3 mph - N/A   Overcast
10:55 AM 28.4 °F - 26.6 °F 93% 29.68 in 1.6 mi NNW 1.2 mph - N/A   Overcast
11:25 AM 30.2 °F 26.7 °F 28.4 °F 93% 29.68 in 1.7 mi East 3.5 mph - N/A   Overcast
11:55 AM 30.2 °F - 28.4 °F 93% 29.68 in 1.8 mi Variable 2.3 mph - N/A   Overcast
12:25 PM 32.0 °F - 28.4 °F 87% 29.65 in - East 1.2 mph - N/A   Overcast
12:55 PM 32.0 °F - 28.4 °F 87% 29.65 in - East 1.2 mph - N/A   Mostly Cloudy
1:00 PM 32 °F - 29 °F 83% 29.69 in 2 mi ENE 2.2 mph - -   Mist
1:25 PM 32.0 °F 28.7 °F 28.4 °F 87% 29.65 in - ESE 3.5 mph - N/A   Mist
1:55 PM 32.0 °F 27.5 °F 28.4 °F 87% 29.65 in - East 4.6 mph - N/A   Mist
2:25 PM 32.0 °F - 28.4 °F 87% 29.65 in - Variable 2.3 mph - N/A   Mist
2:55 PM 32.0 °F - 28.4 °F 87% 29.65 in 3.1 mi Variable 1.2 mph - N/A   Mist
3:25 PM 33.8 °F - 28.4 °F 81% 29.65 in 3.1 mi Variable 2.3 mph - N/A   Mist
3:55 PM 33.8 °F 29.6 °F 28.4 °F 81% 29.65 in - NE 4.6 mph - N/A   Mist
4:00 PM 33 °F - 29 °F 77% 29.70 in 3 mi NE 4.5 mph - -   Mist
4:25 PM 32.0 °F 26.4 °F 28.4 °F 87% 29.68 in - NE 5.8 mph - N/A   Scattered Clouds
4:55 PM 30.2 °F 23.4 °F 28.4 °F 93% 29.68 in - NE 6.9 mph - N/A   Overcast
5:25 PM 30.2 °F 23.4 °F 28.4 °F 93% 29.68 in - ENE 6.9 mph - N/A   Overcast
5:55 PM 30.2 °F 23.4 °F 26.6 °F 86% 29.68 in 2.2 mi NE 6.9 mph - N/A   Overcast
6:25 PM 28.4 °F 21.2 °F 26.6 °F 93% 29.68 in - NE 6.9 mph - N/A   Overcast
6:55 PM 30.2 °F 22.6 °F 26.6 °F 86% 29.68 in - NE 8.1 mph - N/A   Overcast
7:00 PM 29 °F - 27 °F 89% 29.73 in 2 mi NE 6.7 mph - -   Mist
7:25 PM 30.2 °F 23.4 °F 26.6 °F 86% 29.68 in - ENE 6.9 mph - N/A   Overcast
7:55 PM 28.4 °F 21.2 °F 26.6 °F 93% 29.68 in - ENE 6.9 mph - N/A   Mist
8:25 PM 28.4 °F 19.7 °F 26.6 °F 93% 29.71 in 1.7 mi NE 9.2 mph - N/A   Mist
8:55 PM 26.6 °F 19.1 °F 24.8 °F 93% 29.71 in 1.6 mi ENE 6.9 mph - N/A   Mist
9:25 PM 24.8 °F 16.9 °F 24.8 °F 100% 29.71 in 1.7 mi ENE 6.9 mph - N/A   Partly Cloudy
9:55 PM 26.6 °F 18.2 °F 24.8 °F 93% 29.71 in 1.6 mi ENE 8.1 mph - N/A   Overcast
10:00 PM 27 °F - 26 °F 92% 29.75 in 1 mi ENE 8.9 mph - -   Mist
10:25 PM 26.6 °F 18.2 °F 24.8 °F 93% 29.71 in 1.4 mi ENE 8.1 mph - N/A   Overcast
10:55 PM 26.6 °F 17.5 °F 24.8 °F 93% 29.71 in 1.6 mi ENE 9.2 mph - N/A   Partly Cloudy
11:25 PM 24.8 °F 16.1 °F 24.8 °F 100% 29.71 in 1.7 mi ENE 8.1 mph - N/A   Overcast
11:55 PM 26.6 °F 20.0 °F 24.8 °F 93% 29.71 in 1.5 mi ENE 5.8 mph - N/A   Overcast